TimeEST,TemperatureF,Dew PointF,Humidity,Sea Level PressureIn,VisibilityMPH,Wind Direction,Wind SpeedMPH,Gust SpeedMPH,PrecipitationIn,Events,Conditions,WindDirDegrees,DateUTC
12:54 AM,34.0,26.1,73,30.40,10.0,NNE,3.5,-,N/A,,Clear,20,2012-12-13 05:54:00
1:54 AM,33.1,26.1,75,30.41,10.0,North,3.5,-,N/A,,Clear,10,2012-12-13 06:54:00
2:54 AM,32.0,25.0,75,30.43,10.0,Calm,Calm,-,N/A,,Clear,0,2012-12-13 07:54:00
3:54 AM,30.9,26.1,82,30.43,10.0,Calm,Calm,-,N/A,,Clear,0,2012-12-13 08:54:00
4:54 AM,30.9,26.1,82,30.41,10.0,Calm,Calm,-,N/A,,Clear,0,2012-12-13 09:54:00
5:54 AM,30.0,26.1,85,30.45,10.0,Calm,Calm,-,N/A,,Clear,0,2012-12-13 10:54:00
6:54 AM,30.0,26.1,85,30.45,9.0,Calm,Calm,-,N/A,,Clear,0,2012-12-13 11:54:00
7:54 AM,30.9,26.1,82,30.45,10.0,Calm,Calm,-,N/A,,Clear,0,2012-12-13 12:54:00
8:54 AM,35.1,27.0,72,30.44,10.0,North,5.8,-,N/A,,Clear,360,2012-12-13 13:54:00
9:54 AM,42.1,28.0,58,30.46,10.0,NNE,6.9,-,N/A,,Clear,30,2012-12-13 14:54:00
10:54 AM,44.1,26.1,49,30.46,10.0,NE,8.1,-,N/A,,Clear,50,2012-12-13 15:54:00
11:54 AM,46.0,24.1,42,30.44,10.0,NE,9.2,-,N/A,,Clear,40,2012-12-13 16:54:00
12:54 PM,45.0,21.9,40,30.41,10.0,NNW,5.8,-,N/A,,Clear,340,2012-12-13 17:54:00
1:54 PM,46.0,23.0,40,30.40,10.0,North,4.6,-,N/A,,Clear,360,2012-12-13 18:54:00
2:54 PM,46.0,23.0,40,30.40,10.0,North,6.9,-,N/A,,Clear,10,2012-12-13 19:54:00
3:54 PM,45.0,21.9,40,30.39,10.0,Calm,Calm,-,N/A,,Clear,0,2012-12-13 20:54:00
4:54 PM,41.0,23.0,49,30.39,10.0,Calm,Calm,-,N/A,,Clear,0,2012-12-13 21:54:00
8:54 PM,28.9,24.1,82,30.37,10.0,Calm,Calm,-,N/A,,Clear,0,2012-12-14 01:54:00
9:54 PM,28.0,24.1,85,30.36,10.0,Calm,Calm,-,N/A,,Clear,0,2012-12-14 02:54:00
10:54 PM,27.0,24.1,89,30.35,10.0,Calm,Calm,-,N/A,,Clear,0,2012-12-14 03:54:00
11:54 PM,26.1,23.0,88,30.35,10.0,Calm,Calm,-,N/A,,Clear,0,2012-12-14 04:54:00